This is the latest recevied weather packets stored in our database for station/object KM4NDN. If no packets are shown the sender has not sent any weather packets the latest 10 day(s).
| Time | Temp. | Humidity | Pressure | Rain* | Wind** | Luminosity | Snow |
|---|---|---|---|---|---|---|---|
| 1777606305 | 9.44° C | 58% | 1012.8 hPa | 0 mm | - | 0 W/m² | - |
| 1777606000 | 9.44° C | 57% | 1012.8 hPa | 0 mm | - | 0 W/m² | - |
| 1777605697 | 9.44° C | 57% | 1012.8 hPa | 0 mm | - | 0 W/m² | - |
| 1777605395 | 10° C | 54% | 1012.9 hPa | 0 mm | - | 0 W/m² | - |
| 1777605092 | 10° C | 52% | 1012.8 hPa | 0 mm | - | 0 W/m² | - |
| 1777604788 | 9.44° C | 52% | 1013 hPa | 0 mm | - | 0 W/m² | - |
| 1777604485 | 9.44° C | 56% | 1013.2 hPa | 0 mm | - | 0 W/m² | - |
| 1777604185 | 9.44° C | 57% | 1013.3 hPa | 0 mm | - | 0 W/m² | - |
| 1777603881 | 9.44° C | 57% | 1013 hPa | 0 mm | - | 0 W/m² | - |
| 1777603578 | 9.44° C | 58% | 1013.1 hPa | 0 mm | - | 0 W/m² | - |
| 1777603274 | 9.44° C | 57% | 1013.2 hPa | 0 mm | - | 0 W/m² | - |
| 1777602969 | 9.44° C | 59% | 1013.2 hPa | 0 mm | - | 0 W/m² | - |
| 1777602665 | 9.44° C | 58% | 1013.1 hPa | 0 mm | - | 0 W/m² | - |
| 1777602360 | 9.44° C | 58% | 1013.1 hPa | 0 mm | - | 0 W/m² | - |
| 1777602056 | 8.89° C | 56% | 1013.1 hPa | 0 mm | - | 0 W/m² | - |
| 1777601756 | 8.33° C | 60% | 1013.1 hPa | 0 mm | - | 0 W/m² | - |
| 1777601452 | 7.78° C | 71% | 1013.2 hPa | 0 mm | - | 0 W/m² | - |
| 1777601148 | 7.22° C | 77% | 1013.2 hPa | 0 mm | - | 0 W/m² | - |
| 1777600846 | 7.22° C | 75% | 1012.9 hPa | 0 mm | - | 0 W/m² | - |
| 1777600541 | 7.22° C | 73% | 1012.8 hPa | 0 mm | - | 0 W/m² | - |
| 1777600237 | 7.22° C | 69% | 1012.9 hPa | 0 mm | - | 0 W/m² | - |
| 1777599933 | 7.78° C | 69% | 1012.7 hPa | 0 mm | - | 0 W/m² | - |
| 1777599630 | 7.78° C | 61% | 1012.7 hPa | 0 mm | - | 0 W/m² | - |
| 1777599327 | 7.78° C | 68% | 1012.7 hPa | 0 mm | - | 0 W/m² | - |
| 1777599023 | 7.78° C | 65% | 1012.6 hPa | 0 mm | - | 0 W/m² | - |
* Rain latest hour (hover to see other rain measurements)
** Current wind speed in m/s (hover to see current wind gust speed)